This is the latest recevied weather packets stored in our database for station/object KC3DGM. If no packets are shown the sender has not sent any weather packets the latest 10 day(s).
| Time | Temp. | Humidity | Pressure | Rain* | Wind** | Luminosity | Snow |
|---|---|---|---|---|---|---|---|
| 1777638262 | 3.89° C | 94% | 984.1 hPa | 0 mm | - | 31 W/m² | - |
| 1777637958 | 3.33° C | 94% | 984 hPa | 0 mm | - | 36 W/m² | - |
| 1777637655 | 3.33° C | 94% | 984.4 hPa | 0 mm | - | 23 W/m² | - |
| 1777637352 | 3.33° C | 95% | 984.4 hPa | 0 mm | - | 20 W/m² | - |
| 1777637049 | 3.33° C | 96% | 984.1 hPa | 0 mm | - | 35 W/m² | - |
| 1777636744 | 3.33° C | 96% | 984.2 hPa | 0 mm | - | 34 W/m² | - |
| 1777636441 | 3.33° C | 96% | 984 hPa | 0 mm | - | 26 W/m² | - |
| 1777636136 | 2.78° C | 96% | 984.2 hPa | 0 mm | - | 39 W/m² | - |
| 1777635832 | 2.78° C | 96% | 984.2 hPa | 0 mm | - | 25 W/m² | - |
| 1777635528 | 2.78° C | 97% | 984.5 hPa | 0 mm | - | 16 W/m² | - |
| 1777635225 | 2.78° C | 97% | 984.7 hPa | 0 mm | - | 9 W/m² | - |
| 1777634922 | 2.78° C | 97% | 984.5 hPa | 0 mm | - | 6 W/m² | - |
| 1777634619 | 2.78° C | 97% | 984.5 hPa | 0 mm | - | 5 W/m² | - |
| 1777634316 | 2.22° C | 97% | 984.7 hPa | 0 mm | - | 5 W/m² | - |
| 1777634012 | 2.22° C | 97% | 984.6 hPa | 0 mm | - | 6 W/m² | - |
| 1777633709 | 2.22° C | 97% | 984.5 hPa | 0 mm | - | 3 W/m² | - |
| 1777633408 | 2.22° C | 98% | 984.4 hPa | 0 mm | - | 10 W/m² | - |
| 1777633105 | 2.22° C | 98% | 984.3 hPa | 0 mm | - | 7 W/m² | - |
| 1777632801 | 2.22° C | 98% | 984.4 hPa | 0 mm | - | 7 W/m² | - |
| 1777632497 | 2.22° C | 98% | 984.4 hPa | 0 mm | - | 3 W/m² | - |
| 1777632194 | 2.22° C | 98% | 984.6 hPa | 0 mm | - | 1 W/m² | - |
| 1777631891 | 2.22° C | 98% | 984.5 hPa | 0 mm | - | 0 W/m² | - |
| 1777631590 | 2.22° C | 98% | 984.5 hPa | 0 mm | - | 0 W/m² | - |
| 1777631287 | 1.67° C | 98% | 984.8 hPa | 0 mm | - | 0 W/m² | - |
| 1777630984 | 1.67° C | 98% | 984.6 hPa | 0 mm | - | 0 W/m² | - |
* Rain latest hour (hover to see other rain measurements)
** Current wind speed in m/s (hover to see current wind gust speed)